Location: Drocourt
(49.0571°N, 1.7669°E)
Time: 22:04:53
(UTC+00:00)

Transit 4A - Pass Details

Date: 19 April 2024
Orbit: 871 x 971 km, 66.8° (Epoch: 18 May)

Event Time Altitude Azimuth Distance (km) Brightness Sun altitude
Rises 20:21:30 0° 325° (NW) 3,474 12.4 -13.8°
Reaches altitude 10° 20:24:06 10° 331° (NNW) 2,530 11.3 -14.1°
Maximum altitude 20:29:43 48° 45° (NE) 1,137 8.3 -14.9°
Enters shadow 20:33:21 21° 110° (ESE) 1,852 8.9 -15.3°
Drops below altitude 10° 20:35:21 10° 120° (ESE) 2,534 - -15.6°
Sets 20:37:57 0° 126° (SE) 3,480 - -15.9°
